User: anonymous   Login
Location: Heilwood
(40.6210°N, 78.9150°W)
Time: 22:53:19
(UTC-04:00)
Language:

BREEZE-M DEB (TANK) - Orbit

View from above orbital plane
View from above orbital plane
View from above satellite
View from above satellite

Ground track
Ground track

The orbit data is extracted from the following two-line orbital elements,

1 29649U 06056B   17146.74092563 -.00000126 +00000-0 -14254-4 0  9993
2 29649 049.4741 249.4009 5365380 147.9801 260.5219 04.99549281186718
Epoch (UTC): 26 May 2017 17:46:55
Eccentricity: 0.5365380
inclination: 49.4741°
perigee height: 321 km
apogee height: 15832 km
right ascension of ascending node: 249.4009°
argument of perigee: 147.9801°
revolutions per day: 4.99549281
mean anomaly at epoch: 260.5219°
orbit number at epoch: 18671

The dashed part of the orbit path shows where the satellite is in the earth's shadow,  

DLR